Tracking 35055 objects as of 18-Aug-2026
HD Live streaming from Space Station
objects crossing your sky now

THORAD AGENA D DEB

Track THORAD AGENA D DEB now!
10-day predictions


NORAD ID: 4706
Int'l Code: 1970-025BU
Launch date: April 8, 1970
Source: United States (US)
Launch site: AIR FORCE WESTERN TEST RANGE (AFWTR)

Note: This is SATELLITE DEBRIS
Your satellite tracking list
Your tracking list is empty




NASA's NSSDC Master Catalog

Two Line Element Set (TLE):
1 04706U 70025BU  26230.22699856  .00000012  00000-0  92998-4 0  9995
2 04706  99.7722 126.6498 0033212 251.5676 260.9514 13.45874407765754
Source of the keplerian elements: AFSPC